Location: Brachstadt
(48.6975°N, 10.6755°E)
Time: 05:26:37
(UTC+00:00)

Cosmos 1655 Rocket - Pass Details

Date: 18 September 2020
Orbit: 971 x 1006 km, 82.9° (Epoch: 22 October)

Event Time Altitude Azimuth Distance (km) Brightness Sun altitude
Rises 21:04:25 0° 348° (NNW) 3,685 7.9 -32.9°
Reaches altitude 10° 21:06:57 10° 345° (NNW) 2,737 7.1 -33.1°
Enters shadow 21:12:31 59° 293° (WNW) 1,130 4.4 -33.7°
